Showing default

QIANFAN-42, 62243

Orbit data source: Space-Track

QIANFAN-42, 62243 is a Chinese payload satellite in LEO that was launched on Thu, 05 Dec 2024 UTC via a CHANG ZHENG 6A launch vehicle from the Taiyaun Space Center, China (TSC). Payload-class satellites include a variety of spacecraft equipped with specific instruments for various scientific and technological missions. These include communications satellites like Starlink; space stations such as the ISS; scientific satellites like the Hubble; Earth observation satellites from companies like Planet Labs, Umbra, and HawkEye 360; GPS; miniature CubeSats for education and research; and military/defense satellites.

Loading next visibility...
Identifier
62243, 2024-232G
Orbit
LEO
Country
Flag of CNCN / PRC
Related business
Manufacturer
SECM
Mission
Partially operational Commercial Communications
Bus & Motor
QIANFAN, Unknown motor
Mass
267 kg wet, ~267 kg dry
Launch date (UTC)
2024-12-05 (1 year ago)
Launch vehicle
CHANG ZHENG 6A
Launch site
Taiyaun Space Center, China (TSC)
Object type
Payload
Rocket body
Debris
Shape & HBR
Box + 1 Pan, 5.0 m
Radar Cross Section
13.200 m², Large (>1 m²)

Expand to show TLE details & history
Last TLE update: 8 hours ago

TLE from 8 hours ago
0 QIANFAN-42
1 62243U 24232G   26127.24662816  .00000398  00000-0  16508-3 0  9996
2 62243  89.0094  20.7903 0014277 337.8490  22.2084 14.24591409122085
Epoch: 2026-05-07T05:55Z
TLE epoch observation values (Epoch: 2026-05-07T05:55:08.673Z)
Latitude
Longitude
66.90865°
Altitude
803.425 km
Speed
7.457 km/s
True Right ascension
01h 23m 09s
True Declination
0° 00' 00"
Sunlit
Object was in daylight at epoch
Visualization orbit readout
Latitude
Unknown
Longitude
Unknown
Altitude
Unknown
Speed
Unknown
Apparent Right ascension
Unknown
Apparent Declination
Unknown
Sunlit
N/A
Visualization observer readout
Local Sidereal Time
22:11:47
Azimuth
Unknown
Elevation
Unknown
Doppler factor
Unknown
Orbital elements
Apogee altitude
817.069 km
Perigee altitude
796.553 km
Semi-major axis
7,184.948 km
Eccentricity
0.00143
Inclination
89.0094°
RAAN
20.7903°
Arg. of periapsis
337.849°
True anomaly
22.27034°
Mean anomaly
22.2084°
Eccentric anomaly
22.23936°
Mean motion
3.56375 °/min
Orbital period
101.02 mins
BSTAR
0.00016508
Loading maneuver chart data...
Computing Atmospheric mass density...
Loading historical data...
Loading historical data...
Loading historical data...
Loading historical data...
Loading historical data...
Loading historical data...
Loading historical data...

Documentation

Showing up to 5 results
|